Greenville/Spartanburg, SC

5:59 AM EDT on May 27, 2017 (GMT -0400)
Greenville-Spartanburg International

Weather History for KGSP - January, 2012

Change the Weather History Date:

Thursday, January 12, 2012

  Actual Average Record
Temperature  
Mean Temperature 46 °F 42 °F  
Max Temperature 58 °F 52 °F 73 °F (2013)
Min Temperature 33 °F 32 °F 7 °F (1893)
Degree Days  
Heating Degree Days 19 23  
Month to date heating degree days 220 276  
Since 1 July heating degree days 1260 1479  
Cooling Degree Days 0 0  
Month to date cooling degree days 0 0  
Year to date cooling degree days 0 0  
Moisture  
Dew Point 40 °F    
Average Humidity 69    
Maximum Humidity 86    
Minimum Humidity 52    
Precipitation  
Precipitation T in 0.12 in 2.57 in (1908)
Month to date precipitation 0.78 1.48  
Year to date precipitation 0.78 1.48  
Snow  
Snow 0.00 in 0.00 in 2.30 in (1893)
Month to date snowfall 0.0 0.8  
Since 1 July snowfall 0.0 1.3  
Snow Depth 0.00 in    
Sea Level Pressure  
Sea Level Pressure 29.62 in    
Wind  
Wind Speed 15 mph (SW)    
Max Wind Speed 33 mph    
Max Gust Speed 45 mph    
Visibility 10 miles    
Events Rain    
T = Trace of Precipitation, MM = Missing Value Source: NWS Daily Summary

Daily Weather History Graph

Daily Weather History Graph

Search for Another Location

Airport or City:

Trip Planner

Search our weather history database for the weather conditions in past years. The results will help you decide how hot, cold, wet, or windy it might be!

Date:

Astronomy

Jan. 12, 2012 Rise Set
Actual Time 7:36 AM EST 5:37 PM EST
Civil Twilight 7:09 AM EST 6:05 PM EST
Nautical Twilight 6:38 AM EST 6:36 PM EST
Astronomical Twilight 6:07 AM EST 7:06 PM EST
Moon 9:30 PM EST (1/12) 9:29 AM EST (1/12)
Length of Visible Light 10h 55m
Length of Day
10h 00m
Waning Gibbous, 87% of the Moon is Illuminated
Jan 12
Waning Gibbous
Jan 16
Last Quarter
Jan 23
New
Jan 30
First Quarter
Feb 7
Full

Hourly Weather History & Observations

Time (EST) Temp. Windchill Dew Point Humidity Pressure Visibility Wind Dir Wind Speed Gust Speed Precip Events Conditions
12:05 AM 48.2 °F - 42.8 °F 82% 29.61 in 10.0 mi WSW 11.5 mph 20.7 mph N/A   Partly Cloudy
12:17 AM 48.2 °F - 42.8 °F 82% 29.61 in 10.0 mi SW 12.7 mph - N/A   Mostly Cloudy
12:40 AM 48.2 °F - 42.8 °F 82% 29.62 in 10.0 mi WSW 9.2 mph 18.4 mph N/A   Scattered Clouds
12:53 AM 48.0 °F - 42.1 °F 80% 29.61 in 10.0 mi WSW 11.5 mph - N/A   Partly Cloudy
1:53 AM 48.0 °F - 42.1 °F 80% 29.60 in 10.0 mi WSW 4.6 mph - N/A   Clear
2:53 AM 46.9 °F - 41.0 °F 80% 29.60 in 10.0 mi SW 9.2 mph - N/A   Clear
3:53 AM 46.9 °F - 42.1 °F 83% 29.61 in 10.0 mi SW 13.8 mph - N/A   Clear
4:53 AM 46.0 °F 41.4 °F 43.0 °F 89% 29.61 in 10.0 mi SW 9.2 mph - N/A   Clear
5:53 AM 46.0 °F 41.9 °F 42.1 °F 86% 29.61 in 10.0 mi SW 8.1 mph - N/A   Clear
6:53 AM 46.9 °F - 43.0 °F 86% 29.64 in 10.0 mi WSW 11.5 mph 21.9 mph N/A   Clear
7:53 AM 46.9 °F - 42.1 °F 83% 29.65 in 10.0 mi SW 11.5 mph - N/A   Clear
8:53 AM 48.0 °F - 43.0 °F 83% 29.66 in 10.0 mi SW 13.8 mph 21.9 mph N/A   Clear
9:53 AM 51.1 °F - 43.0 °F 74% 29.67 in 10.0 mi SW 16.1 mph 24.2 mph N/A   Partly Cloudy
10:09 AM 51.8 °F - 42.8 °F 71% 29.68 in 10.0 mi SW 17.3 mph 26.5 mph N/A   Mostly Cloudy
10:53 AM 53.1 °F - 43.0 °F 69% 29.67 in 10.0 mi WSW 16.1 mph 25.3 mph N/A   Mostly Cloudy
11:53 AM 53.1 °F - 42.1 °F 66% 29.64 in 10.0 mi SW 15.0 mph 24.2 mph N/A   Overcast
12:53 PM 54.0 °F - 43.0 °F 66% 29.62 in 10.0 mi SW 13.8 mph 26.5 mph N/A   Mostly Cloudy
1:53 PM 57.0 °F - 43.0 °F 59% 29.60 in 10.0 mi WSW 13.8 mph 23.0 mph N/A   Mostly Cloudy
2:53 PM 55.9 °F - 42.1 °F 60% 29.58 in 10.0 mi SW 15.0 mph 21.9 mph N/A   Mostly Cloudy
3:53 PM 55.9 °F - 42.1 °F 60% 29.56 in 10.0 mi SSW 10.4 mph - N/A   Overcast
4:53 PM 54.0 °F - 45.0 °F 72% 29.56 in 10.0 mi SW 9.2 mph - 0.00 in Rain Light Rain
5:53 PM 54.0 °F - 45.0 °F 72% 29.53 in 10.0 mi SSW 12.7 mph - 0.00 in   Overcast
6:53 PM 54.0 °F - 46.9 °F 77% 29.54 in 10.0 mi SW 17.3 mph 23.0 mph 0.00 in   Mostly Cloudy
7:53 PM 50.0 °F - 42.1 °F 74% 29.56 in 10.0 mi WSW 20.7 mph 31.1 mph N/A   Partly Cloudy
8:53 PM 46.9 °F - 34.0 °F 61% 29.59 in 10.0 mi WSW 33.4 mph 43.7 mph N/A   Clear
9:53 PM 41.0 °F 30.7 °F 27.0 °F 57% 29.64 in 10.0 mi WSW 25.3 mph 40.3 mph N/A   Clear
10:53 PM 37.0 °F 25.9 °F 21.9 °F 54% 29.68 in 10.0 mi WSW 23.0 mph 40.3 mph N/A   Partly Cloudy
11:53 PM 33.1 °F 23.0 °F 14.0 °F 46% 29.75 in 10.0 mi West 15.0 mph 31.1 mph N/A   Clear